sat.trackr.live / text

‹ back to catalog

STARLINK-37872

NORAD 69433 · 2026-126P

PAYLOAD ACTIVE UNKNOWN

§ Identity

Operator
Country
US
Launch date
2026-06-07
Launch site
AFWTR
Launch vehicle
Mass (kg)
RCS (m²)

Purposes: comms

External: N2YO · Heavens-Above · Gunter

§ Orbital elements

Epoch: 2026-09-18T20:56:25.708128Z

Period
93.91 min
Inclination
97.2840°
Eccentricity
0.0002063
Mean motion
15.33444619 rev/d
Perigee alt
464.1 km
Apogee alt
467.0 km
Semi-major
6,843.7 km
B*
5.1941e-4
RAAN
123.1106°
Arg perigee
91.7706°
Mean anomaly
268.3773°
Rev number
1,727

§ Raw data

STARLINK-378721 69433U 26126P   26261.87251977  .00016731  00000+0  51941-3 0  99952 69433  97.2840 123.1106 0002063  91.7706 268.3773 15.33444619 17275

JSON: /api/v1/satellites/69433 · /tle

For live sub-satellite position, see the globe view (requires WebGL).

§ Visibility from observer

Set your observer location to see the next 7 days of passes ≥ 10°. The values pass through the URL so the page stays shareable.

No JS? Fill the form by hand. The geolocation button needs JavaScript.